Погода в Лопатино

Россия / Пензенская область     52°37′08″N   45°48′42″E
темп.,
°C
ветер,
м/с
пор.,
м/с
влажн.,
%
обл.,
%
осадки,
мм/ч
давл.,
гПа
погр.,
м
13 июня, вс
вс1300:00+15ю348718 0.0 101154
03:00+14ю359128 0.1 101188
06:00+17ююз368850 0.0 1011204
09:00+21ююз58710 0.4 1011932
12:00+23ююз796512 0.6 10121583
15:00+22ююз687094 1.9 10121200
18:00+22ю367815 0.4 1012334
21:00+17ю4892100 0.6 1013146
14 июня, пн
пн1400:00+17ю3492100 0.0 101477
03:00+16ююв349311 0.1 101467
06:00+18ююв2489100 0.0 1015156
09:00+21ююв2273100 0.0 1015386
12:00+24ю3463100 0.1 10161215
15:00+21зюз4681100 0.4 1016417
18:00+18ссз2486100 0.4 1015115
21:00+18с4990100 0.4 1014204
15 июня, вт
вт1500:00+17юз1193100 2.6 101425
03:00+17зсз2396100 5.8 101365
06:00+16с3499100 8.1 1013156
09:00+17в249683 12.8 1013298
12:00+24юв467198 0.0 10111238
15:00+24юв6975100 3.1 10101159
18:00+22юв6117757 4.6 1009366
21:00+18вюв4109114 5.1 1009177
16 июня, ср
ср1600:00+16вюв33857 0.0 100839
03:00+15ююв118620 0.0 100811
06:00+18з238699 0.0 1008114
09:00+21зюз347910 0.0 1007622
12:00+24зюз456729 0.0 10081294
15:00+22зюз567338 0.2 10081053
18:00+22з468238 0.7 1009593
21:00+18зсз489410 1.6 1011179
17 июня, чт
чт1700:00+17ссз41295100 0.0 1012354
03:00+15ссз4109771 0.0 1014352
06:00+16с5109090 0.0 1016473
09:00+19с68660 0.0 1017975
12:00+20ссв78510 0.0 10181428
15:00+21ссв68550 0.0 10191648
18:00+18ссв69670 0.0 1020693
21:00+14ссв49760 0.0 1022162